Content
SEND FEEDBACK

Daily
Averages
Monthly
Summary
United States of America

BERKELEY, MISSOURI


Home > North America > United States > Missouri
Elevation: 172 meters     Latitude: 38 45N     Longitude: 090 22W

WEATHER
 
SELECT A DAY
Number of Records: 203,517;   Date Range: 1/1/95 - 8/28/14
 
SHARE

PRINT THIS DATA

[ ← Previous Day ]
WEATHER ALMANAC - 14 MAY, 2013
[ Next Day → ]
[ °F ]   °C
Weather ElementAverageHighLow
Temperature25.6 °C33.3 °C (2:51 pm)15 °C (5:51 am)
Dewpoint9.7 °C12.2 °C (10:51 am)6.7 °C (1:51 am)
Humidity39.5 %67 % (5:51 am)23 % (5:51 pm)
Barometer1011.5 hPa1015.2 hPa (1:51 am)1008.5 hPa (6:51 pm)
Wind Speed18.5 km/h29.6 km/h (4:51 pm)
Wind Gust48.1 km/h (3:51 pm)
Weather ElementAverage
Visibility16.1 km
Wind DirectionSW (224.3 °)

Weather ElementTotal
Precipitation---
Cooling Degree Days5.8 (Base 18.3)
Growing Degree Days14.2 (Base 10)
Averaged from 23 records on 14 May, 2013
WEATHER CONDITIONS BREAKOUT
WIND DIRECTION BREAKOUT
WEATHER BY HOUR - 14 MAY, 2013
[ °F ]   °C
Local TimeTemperatureDewpointHumidityBarometerVisibilityWind DirectionWind SpeedGust SpeedPrecipitationEventsConditions
1:51 AM16.7 °C6.7 °C52 %1015.2 hPa16.1 kmSouth (180°)7.4 km/hPartly Cloudy
2:51 AM16.7 °C7.2 °C53 %1014.6 hPa16.1 kmSSE (160°)13 km/hScattered Clouds
3:51 AM16.1 °C7.8 °C58 %1014.2 hPa16.1 kmSouth (170°)9.3 km/hPartly Cloudy
4:51 AM15.6 °C8.3 °C62 %1013.9 hPa16.1 kmSSE (160°)9.3 km/hScattered Clouds
5:51 AM15 °C8.9 °C67 %1013.2 hPa16.1 kmSSE (160°)11.1 km/hMostly Cloudy
6:51 AM15.6 °C9.4 °C67 %1013.5 hPa16.1 kmSouth (170°)7.4 km/hMostly Cloudy
7:51 AM18.9 °C10.6 °C59 %1012.9 hPa16.1 kmSSW (200°)11.1 km/hScattered Clouds
8:51 AM21.7 °C11.7 °C53 %1012.5 hPa16.1 kmSW (220°)14.8 km/hPartly Cloudy
9:51 AM25.6 °C11.7 °C42 %1011.9 hPa16.1 kmWSW (250°)22.2 km/hPartly Cloudy
10:51 AM26.7 °C12.2 °C40 %1011.9 hPa16.1 kmWSW (240°)22.2 km/hPartly Cloudy
11:51 AM28.9 °C12.2 °C35 %1011.9 hPa16.1 kmWSW (250°)22.2 km/h35.2 km/hPartly Cloudy
12:51 PM31 °C12 °C31 %1011.9 hPa16.1 kmWSW (250°)24.1 km/h35.2 km/hPartly Cloudy
1:51 PM32.2 °C11.7 °C28 %1010.5 hPa16.1 kmWest (270°)22.2 km/h33.3 km/hPartly Cloudy
2:51 PM33.3 °C11.1 °C26 %1010.2 hPa16.1 kmWest (260°)27.8 km/h37 km/hPartly Cloudy
3:51 PM33.3 °C10.6 °C25 %1009.5 hPa16.1 kmWest (260°)25.9 km/h48.1 km/hPartly Cloudy
4:51 PM33.3 °C10 °C24 %1009.5 hPa16.1 kmWSW (250°)29.6 km/h42.6 km/hPartly Cloudy
5:51 PM33.3 °C9.4 °C23 %1008.8 hPa16.1 kmWSW (250°)27.8 km/h37 km/hPartly Cloudy
6:51 PM32.8 °C9.4 °C23 %1008.5 hPa16.1 kmWSW (250°)14.8 km/h35.2 km/hPartly Cloudy
7:51 PM31.1 °C8.9 °C25 %1008.8 hPa16.1 kmWSW (240°)24.1 km/h35.2 km/hPartly Cloudy
8:51 PM29.4 °C8.3 °C27 %1009.5 hPa16.1 kmWSW (240°)22.2 km/hPartly Cloudy
9:51 PM28.9 °C7.8 °C26 %1009.8 hPa16.1 kmWSW (250°)24.1 km/h37 km/hPartly Cloudy
10:51 PM27.2 °C8.3 °C30 %1010.2 hPa16.1 kmWSW (240°)14.8 km/hClear
11:51 PM26.1 °C8.3 °C32 %1010.5 hPa16.1 kmWSW (240°)16.7 km/hClear
Hourly data recorded from KSTL, located 0 kilometers away from Berkeley, Missouri







STORIES FROM OUR PARTNERS